ヘール-ボップ彗星

C/1995 O1 ( Hale-Bopp )

English version
Home page
Updated on March 3, 2018

---------------------------------------------------------------------

・ プロフィール

発見日 1995年7月23日
発見光度 10.5等, 10.8等
発見者 Alan Hale (Cloudcroft, NM), Thomas Bopp (Stanfield, AZ)

・ 写真集

・ 軌道要素

Epoch 1997 Mar. 13.0 TT = JDT 2450520.5
T 1997 Apr. 1.13727 TT                                  MPCW
q   0.9141407            (2000.0)            P               Q
z  +0.0053998      Peri.  130.58879     -0.13312075     -0.17030406
                   Node   282.47071     +0.28229358     +0.93780525
e   0.9950638      Incl.   89.43006     +0.95004695     -0.30251916
From 3093 observations 1995 July 24-2013 Aug. 13, mean residual 0".8.
     Nongravitational parameters A1 = +1.36, A2 = +0.0894.

・ 星図

・ 光度変化

        m1 = -10   + 5 logΔ + 20   log r  [    ,-520]  (              〜1995年10月29日)
        m1 =  -2.0 + 5 logΔ + 10.0 log r  [-520,-215]  (1995年10月29日〜1996年 8月29日)
        m1 =  -0.3 + 5 logΔ +  7.5 log r  [-215, -35]  (1996年 8月29日〜1997年 2月25日)
        m1 =  -0.7 + 5 logΔ + 16.9 log r  [ -35,   0]  (1997年 2月25日〜1997年 4月 1日)
        m1 =  -1.0 + 5 logΔ +  7.9 log r  [   0, 200]  (1997年 4月 1日〜1997年10月18日)
        m1 =  -1.3 + 5 logΔ + 10.0 log r  [ 200, 450]  (1997年10月18日〜1998年 6月25日)
        m1 =  -2.0 + 5 logΔ + 10.0 log r  [ 450,2250]  (1998年 6月25日〜2003年 5月30日)
        m1 = -14.5 + 5 logΔ + 20   log r  [2250,    ]  (2003年 5月30日〜              )

---------------------------------------------------------------------

軌道要素はM.P.E.C. 2017-T14に掲載されたものです。
星図は StellaNavigator Ver.2.0 for Windows (アストロアーツ編著 / アスキー出版局刊) で作成したものです。
光度グラフはComet for Windowsで作成したものです。

---------------------------------------------------------------------

Copyright(C) Seiichi Yoshida (comet@aerith.net). All rights reserved.